Regional Weather Roundup
Issued by NWS

Home | Current Version | Previous Version | Graphics & Text | Print | Product List | Glossary On
Versions: 1 2 3 4 5 6 7 8 9 10 11 12 13 14 15 16 17 18 19 20 21 22 23 24 25 26 27 28 29 30 31 32 33 34 35 36 37 38 39 40 41 42 43 44 45 46 47 48 49 50
798
ASUS45 KCYS 280310
RWRWY

WYOMING REGIONAL WEATHER ROUNDUP
NATIONAL WEATHER SERVICE CHEYENNE WY
900 PM MDT WED JUL 27 2016

NOTE:  "FAIR" INDICATES FEW OR NO CLOUDS BELOW 12,000 FEET
WITH NO SIGNIFICANT WEATHER AND/OR OBSTRUCTIONS TO VISIBILITY.

WYZ001-280400-
YELLOWSTONE NATIONAL PARK

CITY           SKY/WX    TMP DP  RH WIND       PRES   REMARKS
LK YELLOWSTONE   N/A     53  49  86 NW5       30.37S
W YELLOWSTONE  NOT AVBL

$$
WYZ002>013-054>058-071-098>099-280400-
NORTHERN WYOMING

CITY           SKY/WX    TMP DP  RH WIND       PRES   REMARKS
JACKSON        FAIR      73  28  19 W8        30.22S
CODY           FAIR      70  50  49 W5        30.19R
GREYBULL       MOCLDY    86  47  25 NW21      30.06R
WORLAND        FAIR      80  44  27 NE5       30.05R
SHERIDAN       FAIR      79  49  34 N9        30.12R
BUFFALO        FAIR      76  50  40 SE3       30.19R
GILLETTE       FAIR      67  58  72 SE3       30.13R
HULETT         FAIR      70  50  49 E10       30.16R
NEWCASTLE      FAIR      70  54  56 E10       30.15S

$$
WYZ014>020-022>026-101>103-280400-
CENTRAL WYOMING

CITY           SKY/WX    TMP DP  RH WIND       PRES   REMARKS
BIG PINEY      FAIR      71  26  18 N10       30.29R
PINEDALE       FAIR      66  32  28 NW5       30.30R
DUBOIS         FAIR      70  28  21 E3        30.28R
LANDER         FAIR      77  43  29 W10       30.14R
RIVERTON       FAIR      78  37  22 N10       30.14R
CASPER         FAIR      76  47  35 NE23G29   30.16R
DOUGLAS          N/A    N/A N/A N/A MISG      30.17R

$$
WYZ021-027>030-104>119-280400-
SOUTHERN WYOMING

CITY           SKY/WX    TMP DP  RH WIND       PRES   REMARKS
EVANSTON       FAIR      75  24  15 W8        30.31R
KEMMERER         N/A    N/A N/A N/A NW7       30.32S
FORT BRIDGER   FAIR      76  21  12 NW6       30.32R
ROCK SPRINGS   FAIR      79  18  10 W12       30.24R
DIXON          FAIR      69  30  23 E5        30.24R
RAWLINS        FAIR      70  30  22 NE7       30.24R
SARATOGA       FAIR      72  34  25 CALM      30.27R
LARAMIE        FAIR      68  49  50 E8        30.30R
CHEYENNE       FAIR      68  57  68 E5        30.24R
TORRINGTON     FAIR      75  53  46 E17       30.15R
PINE BLUFFS    FAIR      63  55  77 CALM      30.19R

$$




USA.gov is the U.S. government's official web portal to all federal, state and local government web resources and services.